Thomasville, PA

7:05 AM EDT on August 26, 2016 (GMT -0400)
York

Weather History for KTHV - November, 2012

Change the Weather History Date:

Thursday, November 22, 2012

  Actual Average Record
Temperature  
Mean Temperature 40 °F -  
Max Temperature 55 °F 44 °F 73 °F (2007)
Min Temperature 24 °F 36 °F 12 °F (2014)
Degree Days  
Heating Degree Days 26    
Moisture  
Dew Point 26 °F    
Average Humidity 71    
Maximum Humidity 89    
Minimum Humidity 33    
Precipitation  
Precipitation 0.00 in - - ()
Sea Level Pressure  
Sea Level Pressure 30.24 in    
Wind  
Wind Speed 0 mph (North)    
Max Wind Speed 0 mph    
Max Gust Speed -    
Visibility 8 miles    
Events      
Averages and records for this station are not official NWS values.
T = Trace of Precipitation, MM = Missing Value Source: NWS Daily Summary

Daily Weather History Graph

Daily Weather History Graph

Search for Another Location

Airport or City:

Trip Planner

Search our weather history database for the weather conditions in past years. The results will help you decide how hot, cold, wet, or windy it might be!

Date:

Astronomy

Nov. 22, 2012 Rise Set
Actual Time 7:00 AM EST 4:46 PM EST
Civil Twilight 6:31 AM EST 5:15 PM EST
Nautical Twilight 5:58 AM EST 5:48 PM EST
Astronomical Twilight 5:25 AM EST 6:21 PM EST
Moon 1:30 PM EST (11/22) 1:18 AM EST (11/22)
Length of Visible Light 10h 44m
Length of Day
9h 45m
Waxing Gibbous, 71% of the Moon is Illuminated
Nov 22
Waxing Gibbous
Nov 28
Full
Dec 6
Last Quarter
Dec 13
New
Dec 20
First Quarter

Hourly Weather History & Observations

Time (EST) Temp. Dew Point Humidity Pressure Visibility Wind Dir Wind Speed Gust Speed Precip Events Conditions
12:53 AM 27.0 °F 23.0 °F 85% 30.25 in 9.0 mi Calm Calm - N/A   Clear
1:53 AM 27.0 °F 23.0 °F 85% 30.26 in 8.0 mi Calm Calm - N/A   Clear
2:53 AM 26.1 °F 23.0 °F 88% 30.25 in 7.0 mi Calm Calm - N/A   Clear
3:53 AM 25.0 °F 21.9 °F 88% 30.25 in 7.0 mi Calm Calm - N/A   Clear
4:53 AM 25.0 °F 21.0 °F 85% 30.27 in 6.0 mi Calm Calm - N/A   Clear
5:53 AM 24.1 °F 21.0 °F 88% 30.27 in 6.0 mi Calm Calm - N/A   Clear
6:53 AM 24.1 °F 19.9 °F 84% 30.29 in 6.0 mi Calm Calm - N/A   Clear
7:53 AM 27.0 °F 24.1 °F 89% 30.28 in 5.0 mi Calm Calm - N/A   Clear
8:53 AM 35.1 °F 28.9 °F 78% 30.30 in 6.0 mi Calm Calm - N/A   Haze
9:53 AM 41.0 °F 30.0 °F 65% 30.30 in 7.0 mi Calm Calm - N/A   Clear
10:53 AM 46.9 °F 30.9 °F 54% 30.29 in 10.0 mi Calm Calm - N/A   Clear
11:53 AM 50.0 °F 28.0 °F 43% 30.26 in 10.0 mi Calm Calm - N/A   Clear
12:53 PM 53.1 °F 28.0 °F 38% 30.24 in 10.0 mi Calm Calm - N/A   Clear
1:53 PM 55.0 °F 28.9 °F 37% 30.22 in 10.0 mi Calm Calm - N/A   Clear
2:53 PM 55.0 °F 26.1 °F 33% 30.21 in 10.0 mi Calm Calm - N/A   Clear
3:53 PM 55.0 °F 26.1 °F 33% 30.20 in 10.0 mi Calm Calm - N/A   Clear
4:53 PM 41.0 °F 30.9 °F 67% 30.20 in 10.0 mi Calm Calm - N/A   Clear
5:53 PM 36.0 °F 28.0 °F 73% 30.20 in 10.0 mi Calm Calm - N/A   Clear
6:53 PM 33.1 °F 28.0 °F 82% 30.20 in 10.0 mi Calm Calm - N/A   Clear
7:53 PM 32.0 °F 27.0 °F 82% 30.19 in 10.0 mi Calm Calm - N/A   Clear
9:53 PM 30.0 °F 25.0 °F 82% 30.17 in 10.0 mi Calm Calm - N/A   Clear
10:53 PM 28.9 °F 25.0 °F 85% 30.16 in 9.0 mi Calm Calm - N/A   Clear
11:53 PM 28.9 °F 24.1 °F 82% 30.15 in 8.0 mi Calm Calm - N/A   Clear